RH
37 37 38 38 39 40 40 43 43 43 48 49 49 47 45 42 41 40 38 36 34 33 33 32 31 30 30 29 25 19 14 13 14 15 16 16 16 16 16 16 15 14 13 11 10 10 9 9 14 17 16 14 14 14 16 17 17 17 19 21 22 21 19 17 15 15 15 15 16 17 18 18 18 19 24 27 27 26 25 26 26 26 27 29 29 29 27 24 23 22 20 20 19 19 19 23 26 27 24 20 19 20 22
41 40 39 39 41 42 41 47 48 47 51 52 51 49 46 43 40 38 37 36 34 33 32 34 34 33 32 29 23 18 13 13 14 16 16 17 17 17 17 17 16 15 14 12 11 10 9 11 15 18 19 16 15 14 15 16 17 18 20 21 21 20 18 17 16 15 15 15 16 17 18 18 20 24 29 30 29 26 25 24 24 23 24 26 27 26 23 22 21 21 23 21 20 19 20 22 24 24 22 19 18 19 21
42 42 40 40 42 44 43 49 51 52 50 54 53 51 47 43 41 39 37 36 34 33 32 35 37 37 34 29 23 17 14 14 15 16 17 17 17 17 17 17 17 16 15 13 11 10 9 13 16 19 19 18 16 14 13 14 15 18 22 22 21 21 18 17 16 17 17 17 18 18 19 21 25 29 31 31 29 26 25 24 23 23 23 23 23 23 21 20 21 21 23 22 21 21 21 21 22 21 18 17 17 17 18
42 41 40 41 44 46 46 49 52 54 51 54 54 51 46 44 42 41 38 37 35 34 33 37 40 41 38 30 23 17 14 15 16 17 17 18 18 18 18 19 18 18 16 14 12 10 9 11 14 17 17 15 14 13 13 13 14 16 21 21 22 21 18 18 19 20 21 22 22 22 24 27 29 31 31 29 28 26 24 24 24 24 23 22 21 20 20 20 22 23 24 24 24 24 21 21 20 18 16 16 16 16 16
43 43 43 45 47 49 48 48 51 53 52 53 52 49 45 44 43 42 40 38 36 34 35 38 42 44 41 32 24 17 14 15 16 17 18 18 19 19 19 20 20 19 18 15 13 11 10 10 12 14 14 14 14 13 13 13 13 14 17 20 21 20 18 21 22 24 26 27 27 28 29 30 31 31 31 28 26 25 24 27 27 26 25 22 21 19 20 21 23 24 24 25 26 25 22 20 19 18 16 15 15 15 16
45 47 48 50 52 52 51 48 49 50 50 51 50 47 44 43 44 43 42 40 38 37 37 41 44 46 44 35 26 18 15 15 16 17 18 19 19 20 20 21 21 20 19 17 15 12 10 10 12 13 13 14 14 15 15 15 15 15 17 20 20 19 18 22 25 26 26 28 29 30 31 30 31 31 31 27 25 25 27 31 31 29 28 25 23 23 23 22 24 25 25 24 25 24 23 20 18 18 17 16 16 16 16
46 49 51 54 55 55 53 50 48 47 48 48 48 47 43 42 43 43 42 42 41 40 41 43 46 48 46 38 29 21 16 16 17 17 18 19 20 20 21 22 22 22 21 19 17 14 12 12 13 14 13 14 15 16 17 15 16 17 17 19 18 17 18 23 26 27 26 29 30 30 31 30 31 30 28 26 25 26 29 32 33 33 31 29 26 24 24 25 24 24 24 23 22 21 20 20 20 20 19 19 19 19 19
44 47 51 55 56 56 55 52 50 47 45 46 47 47 43 41 41 42 42 43 43 43 44 46 48 49 47 39 31 24 19 18 18 18 19 19 20 21 22 22 23 23 22 21 19 16 14 14 14 15 15 15 16 17 17 17 19 20 21 19 16 16 19 23 26 27 27 28 29 30 30 29 28 27 25 25 25 26 29 33 34 34 34 33 30 28 25 25 24 23 24 23 23 23 22 22 22 21 20 21 21 21 21
43 45 50 55 57 58 57 55 52 49 45 44 46 46 44 41 40 40 41 42 43 45 46 48 50 51 48 40 32 26 22 20 20 20 20 20 21 21 22 23 23 24 24 22 20 18 15 15 15 16 16 16 17 17 17 19 20 20 21 20 17 16 19 22 25 28 28 29 29 30 29 28 26 25 24 25 25 26 28 32 34 34 34 33 31 28 26 25 24 24 23 23 23 23 23 22 22 22 22 22 22 23 23
42 45 49 54 57 59 60 58 54 50 46 44 46 47 44 41 39 38 38 41 42 44 46 49 52 52 49 41 34 27 23 22 22 22 22 22 22 22 23 23 24 25 24 23 21 19 16 16 16 16 16 17 17 17 18 20 20 20 21 20 18 18 20 23 26 29 30 30 31 31 30 27 25 24 25 25 25 26 27 32 33 33 32 30 29 28 26 24 24 23 23 23 23 23 24 24 24 24 24 25 26 26 26
44 45 49 54 57 59 60 59 56 52 47 45 46 47 45 42 39 37 36 38 40 42 45 48 52 53 50 43 35 28 24 23 23 23 23 23 23 23 23 24 25 25 25 24 22 20 18 16 17 18 16 16 17 18 19 20 21 21 23 20 18 19 22 25 28 30 31 31 32 32 31 28 25 24 24 25 25 26 26 29 30 30 28 27 26 25 23 23 24 24 24 25 26 27 27 27 28 28 29 29 30 30 30
47 46 50 54 56 58 60 59 57 54 50 46 46 47 45 43 40 37 34 35 36 38 41 46 50 53 52 45 37 30 25 24 24 24 24 24 24 24 25 25 25 25 25 24 22 20 18 17 17 17 15 16 16 18 19 21 22 23 24 19 18 20 23 27 29 31 31 32 33 33 32 29 26 24 24 25 25 25 26 27 27 26 26 25 24 23 23 24 25 26 27 28 29 30 30 31 31 32 33 33 33 33 33
53 48 50 53 55 57 58 59 58 56 53 48 46 45 44 44 43 40 34 33 33 34 37 42 47 51 52 47 40 33 28 26 25 25 24 25 25 25 25 25 26 25 25 23 22 21 19 18 18 18 16 16 16 17 20 20 21 23 23 19 18 20 23 28 30 31 32 33 33 33 33 30 27 24 25 25 25 25 25 26 25 25 24 24 23 23 24 26 27 29 30 31 31 32 32 33 33 34 34 35 35 35 35
59 52 49 52 53 55 57 58 58 57 56 51 47 44 43 44 45 42 36 33 32 32 33 38 43 47 50 47 42 37 32 29 27 26 25 25 25 25 25 26 26 25 24 23 22 21 19 20 20 20 18 17 16 17 18 20 21 21 20 18 18 20 22 28 31 32 32 33 34 34 32 29 26 24 25 25 25 25 26 26 25 25 24 24 24 25 26 28 29 30 31 32 32 32 33 33 34 34 35 35 36 36 36
63 58 51 50 52 54 56 57 57 58 58 55 50 45 43 45 46 45 39 34 32 32 32 35 38 43 47 46 43 39 35 33 31 29 28 27 26 26 26 26 25 25 24 23 23 22 21 21 21 20 18 17 16 16 16 19 21 20 17 17 19 20 22 27 30 31 33 33 34 33 31 28 26 25 25 26 26 26 26 26 26 26 25 25 26 26 28 29 30 31 32 32 33 33 33 34 35 35 36 37 37 37 38
65 64 57 52 51 52 55 56 57 57 58 57 53 48 43 44 47 47 43 37 34 33 33 34 36 39 42 43 42 40 39 37 35 34 32 30 29 28 27 26 26 25 24 24 24 25 24 22 20 18 16 16 16 16 15 19 19 17 16 17 19 20 22 26 29 31 33 33 34 32 29 26 25 25 25 26 26 26 26 27 27 27 27 27 28 28 29 31 32 32 33 33 34 34 35 35 36 37 37 38 39 39 39
65 66 63 57 53 52 54 56 57 57 57 57 55 50 45 44 46 48 47 42 38 35 35 35 36 37 39 41 41 41 42 40 39 38 36 35 33 31 29 28 27 26 25 25 27 28 26 24 21 18 16 17 17 18 17 17 16 15 16 17 19 21 22 26 29 31 33 33 33 31 27 26 25 25 26 26 26 26 26 27 27 28 28 29 30 30 31 32 33 34 34 35 35 36 36 37 38 38 39 40 40 40 40
63 66 67 61 57 53 54 56 57 56 55 56 55 52 47 44 45 48 50 46 42 38 37 37 37 37 39 39 40 40 44 43 42 41 40 39 37 35 33 31 29 27 26 26 29 30 28 26 23 19 17 18 19 19 19 17 16 16 16 17 19 21 24 27 30 31 33 32 32 30 27 26 26 26 26 26 26 26 27 28 28 29 30 31 32 32 32 33 34 35 36 37 37 38 38 39 39 40 40 41 41 41 41
62 66 68 65 60 56 54 56 56 55 54 54 54 53 49 45 44 46 50 49 45 41 39 39 39 39 40 40 40 41 42 44 43 43 42 42 40 39 37 34 32 29 28 28 28 28 27 26 23 21 18 19 20 20 20 20 19 19 17 18 20 22 25 28 30 32 33 31 30 29 27 27 27 27 27 27 27 27 27 28 29 30 31 32 33 34 34 35 36 37 38 38 39 39 39 40 40 41 41 41 42 42 42
61 66 69 68 64 58 55 55 55 55 53 54 54 53 50 46 44 44 47 49 47 44 41 42 41 42 43 43 42 41 42 42 42 43 44 44 42 41 40 38 36 33 31 30 29 28 27 26 24 22 20 21 21 22 22 22 22 22 18 19 21 23 27 30 31 33 33 31 29 28 27 27 28 28 27 27 28 28 28 29 30 31 32 33 34 35 35 36 37 38 39 39 40 40 40 40 41 41 41 42 42 42 43
60 65 71 72 68 62 56 56 56 55 54 55 55 53 51 48 46 46 46 48 48 46 44 43 44 46 48 48 45 43 42 41 40 41 43 42 42 41 42 41 40 37 35 33 31 30 28 27 26 23 21 21 22 22 23 23 24 23 19 20 21 25 29 31 32 33 33 31 29 28 28 29 29 29 28 28 28 29 29 29 30 31 32 33 34 35 36 38 38 39 40 40 40 40 40 40 41 41 41 42 42 43 43
60 65 71 73 71 66 59 57 56 56 54 55 56 55 53 51 52 52 51 50 49 48 46 46 47 50 52 51 49 45 42 40 40 39 40 40 39 39 40 42 42 41 40 38 35 33 30 30 27 24 22 21 21 22 23 23 23 23 21 23 24 26 30 31 32 32 32 30 28 28 28 29 31 31 29 29 29 30 30 30 31 31 32 33 35 36 37 39 40 40 40 40 40 40 40 40 40 41 41 42 42 43 43
61 65 72 74 72 68 62 58 56 56 55 55 56 55 55 54 55 57 56 52 50 49 47 47 49 51 52 52 51 49 44 42 40 38 37 36 36 35 37 39 41 42 43 42 40 37 34 32 29 25 22 22 21 22 23 23 22 21 23 26 28 29 31 32 32 32 31 30 30 30 29 29 30 31 30 30 30 31 31 31 31 32 33 34 35 37 39 40 41 41 41 40 40 39 40 40 40 40 41 42 42 43 43
62 66 73 75 74 70 64 59 57 55 54 54 55 55 55 55 57 58 57 54 52 50 49 47 48 50 51 53 52 50 46 43 41 39 37 34 33 33 34 36 38 40 42 43 42 40 36 33 30 27 24 22 22 22 23 21 20 20 23 28 30 32 32 32 32 32 32 32 32 31 30 30 30 31 31 31 32 32 32 32 32 32 33 35 37 39 40 42 42 43 42 41 40 40 40 40 40 40 41 41 42 43 43
62 69 75 76 75 73 67 62 58 56 54 54 55 56 57 57 58 58 57 55 53 51 50 48 48 50 52 53 53 51 48 44 41 39 37 35 34 33 32 32 34 36 39 42 42 41 39 34 30 27 24 23 22 22 23 20 19 20 22 28 31 32 33 33 33 33 34 34 35 34 33 33 33 33 32 32 33 33 34 32 32 33 35 38 40 42 43 43 44 43 43 43 42 42 42 42 41 41 41 41 42 43 43
63 72 77 78 77 74 71 67 64 60 55 54 54 55 57 58 59 59 58 56 54 53 51 48 48 48 50 52 52 51 49 45 42 40 38 36 36 35 32 31 32 34 36 39 41 41 39 35 31 27 25 24 23 22 22 19 18 19 21 27 30 33 34 34 34 35 35 35 36 36 36 36 36 35 33 34 34 35 34 33 32 33 36 39 41 43 45 45 44 44 43 43 44 44 44 44 43 42 41 41 42 43 43
63 72 78 78 77 75 74 73 70 64 57 54 53 53 56 58 59 59 59 58 56 54 52 49 47 47 48 51 52 51 50 47 44 41 39 38 38 37 34 33 32 33 35 37 39 39 38 35 31 27 24 24 24 23 23 19 18 19 20 25 29 33 34 34 35 35 35 36 36 36 37 37 38 38 36 36 37 37 36 34 33 33 36 38 40 42 44 44 44 44 43 44 44 45 45 45 44 43 42 42 42 43 44
63 73 78 78 77 76 76 77 74 68 60 56 53 52 54 57 59 60 60 59 58 55 53 51 49 48 48 50 52 51 50 48 46 43 41 40 40 39 36 35 35 35 35 37 38 38 38 35 31 26 23 24 24 24 24 21 19 19 20 23 27 30 33 34 35 35 36 36 36 37 37 38 38 39 39 39 39 39 39 37 36 36 37 38 39 41 42 42 42 42 43 43 44 45 46 45 44 43 42 42 42 43 44
62 72 78 78 76 75 77 78 76 71 62 57 53 51 53 57 59 60 61 60 59 57 54 53 50 48 48 49 51 52 50 47 45 43 42 42 40 39 37 37 37 37 37 38 38 39 38 35 30 26 22 22 23 25 25 23 21 19 20 22 24 27 29 31 33 34 35 36 36 35 36 37 38 40 41 41 40 40 41 40 40 39 39 38 39 40 40 41 42 43 42 43 44 45 46 46 45 44 43 43 43 44 45
60 70 77 78 75 73 74 76 75 71 65 59 54 52 53 56 58 61 62 61 60 58 57 55 52 50 47 48 51 52 50 45 43 42 41 40 39 37 37 37 38 39 39 39 40 40 39 36 31 27 23 21 23 25 27 27 24 21 21 22 24 25 27 28 29 32 35 36 36 36 37 37 37 39 42 41 40 40 41 41 41 39 38 37 38 39 39 40 42 43 42 43 44 45 46 46 46 45 44 44 44 44 45
57 65 76 76 72 67 67 73 75 73 68 62 56 52 52 55 58 61 63 63 62 60 60 57 53 49 47 48 50 51 49 44 40 38 37 37 37 37 37 38 38 39 40 41 42 41 40 37 32 28 24 22 22 25 28 29 28 26 25 25 26 27 27 28 29 31 35 36 37 37 37 38 37 36 38 39 39 41 41 40 39 38 37 37 37 38 39 40 41 42 43 44 45 46 46 47 47 46 46 45 45 45 45
57 60 70 71 65 60 62 71 76 76 72 65 59 54 51 54 57 61 62 62 62 63 63 59 54 49 46 46 47 48 48 43 39 36 35 35 36 37 37 37 38 40 41 43 43 43 42 38 34 29 25 24 24 25 28 31 32 31 30 30 29 30 31 31 31 32 34 36 37 38 38 38 37 36 36 37 40 43 44 42 40 39 37 37 37 38 39 40 41 42 44 45 46 47 47 48 48 48 47 47 46 46 46
59 57 60 60 57 55 60 71 76 77 75 69 63 57 54 54 57 59 61 61 62 63 64 60 54 49 46 45 45 46 47 43 39 36 35 35 36 37 37 37 38 40 42 44 45 45 43 40 35 31 27 26 26 26 27 31 33 35 36 36 36 36 36 36 36 36 36 36 37 38 38 39 39 39 38 40 43 46 47 44 42 41 39 39 39 40 40 41 42 44 45 47 49 50 50 50 50 49 49 48 48 48 47
65 59 55 53 52 54 61 72 76 77 76 72 67 62 58 57 58 59 60 61 61 61 62 59 55 51 47 45 44 45 45 42 39 37 35 35 36 37 38 38 39 40 42 44 46 46 45 42 38 34 30 28 28 28 29 31 35 38 39 41 42 43 42 42 42 41 41 39 38 37 39 40 41 42 42 44 47 48 48 46 44 43 42 41 41 42 43 44 45 47 49 51 53 54 55 54 52 51 51 50 50 49 48
71 65 59 54 51 53 60 70 75 76 76 75 71 65 61 62 61 61 61 61 61 61 61 59 56 52 49 46 44 44 43 42 40 38 37 36 36 37 38 39 39 40 41 43 45 47 47 45 42 38 34 31 30 30 31 32 35 38 41 42 45 46 47 47 46 45 44 44 42 40 39 41 43 45 46 48 49 49 49 47 46 46 46 45 46 47 49 50 51 52 52 55 56 57 57 56 55 54 53 52 51 50 49
78 72 65 59 54 52 55 64 70 73 75 74 71 67 64 65 66 66 65 64 64 63 62 60 57 55 52 48 45 44 43 42 41 40 38 37 37 38 39 39 40 40 41 42 44 46 48 48 46 43 39 36 33 33 33 34 36 38 41 42 44 47 50 50 50 49 48 47 47 46 44 43 45 48 50 50 51 50 50 49 49 50 52 52 53 55 56 56 57 57 56 60 62 63 62 60 58 57 55 54 53 51 50
82 79 73 66 59 55 52 57 61 65 69 71 69 66 63 66 69 70 71 68 66 64 63 62 60 58 54 49 45 44 43 42 42 41 40 38 38 39 39 40 40 41 41 42 43 45 48 49 49 47 45 42 39 37 36 37 38 39 41 43 44 46 49 51 52 52 51 51 50 50 49 47 47 50 53 54 54 53 53 52 52 54 57 58 59 60 60 60 60 61 60 64 66 67 67 64 61 59 57 56 55 53 51
82 82 80 73 66 59 54 53 54 57 61 64 65 63 61 65 69 73 75 73 69 66 65 64 63 60 56 50 45 43 42 42 42 42 41 39 39 39 39 40 41 41 42 42 43 44 46 48 49 50 49 48 46 44 42 42 42 42 43 44 45 46 48 50 52 53 53 54 54 53 52 49 49 51 55 56 57 57 57 57 57 57 59 61 62 62 62 63 63 64 64 66 68 69 69 68 65 61 59 58 56 54 52
79 82 84 79 73 66 59 55 53 53 55 58 60 60 60 64 68 72 76 75 73 70 68 67 64 61 57 51 46 43 42 41 42 42 41 40 40 39 39 40 41 42 42 42 43 44 45 46 48 49 51 51 50 49 48 47 47 47 47 48 48 49 49 50 51 52 53 54 55 55 54 50 50 53 57 59 60 60 60 61 61 61 60 63 63 63 64 65 66 66 66 67 69 70 70 69 67 64 61 61 58 56 54
77 79 82 81 78 72 66 60 56 54 53 54 56 58 60 64 68 71 75 76 76 75 73 71 67 63 59 53 48 45 42 41 41 42 42 41 41 40 39 40 41 42 42 43 43 44 44 45 46 48 49 51 51 52 51 50 50 50 51 51 51 52 51 51 51 52 53 54 54 54 54 53 53 56 60 61 62 63 63 63 63 63 61 63 64 65 65 66 66 67 68 69 70 70 71 70 68 65 63 63 61 58 55
77 77 78 80 80 77 72 67 62 58 55 54 54 56 60 66 70 72 74 77 79 80 79 76 72 67 62 56 51 47 44 42 42 42 42 42 41 41 40 40 41 42 42 43 43 44 44 44 45 46 48 49 50 51 52 52 52 52 53 54 54 54 54 53 52 52 52 53 53 53 55 55 56 58 61 62 63 63 64 64 64 63 61 64 66 67 67 68 68 67 67 69 70 71 70 70 68 66 65 65 63 61 58
79 78 76 79 80 80 77 74 69 64 59 56 55 56 61 68 73 76 76 78 81 83 84 82 77 72 66 60 55 50 47 44 42 42 42 42 42 41 40 40 41 41 42 43 44 44 44 44 45 46 47 48 49 50 51 52 53 53 54 55 56 56 56 55 54 53 52 53 53 53 55 56 57 59 60 60 60 61 62 62 63 62 61 65 67 68 69 69 69 69 68 69 69 70 70 69 67 66 66 66 66 64 61
82 81 78 79 80 80 79 79 76 70 63 59 57 58 62 70 76 80 80 80 82 84 87 85 82 77 71 65 59 54 50 46 43 42 42 42 42 41 41 41 41 42 42 43 44 44 44 44 45 46 46 47 48 49 51 52 53 54 55 56 57 57 57 56 55 54 53 53 53 54 54 56 58 59 60 58 57 57 58 59 60 60 61 64 67 69 70 70 71 71 70 70 70 70 70 69 68 68 68 68 67 66 64
86 84 82 80 79 78 78 79 78 74 67 62 59 59 63 73 79 82 82 82 84 85 88 86 84 80 74 69 63 58 54 49 45 43 42 42 42 42 42 42 42 42 42 43 44 44 44 45 45 46 46 47 48 49 50 52 53 54 55 56 57 57 57 56 56 55 54 54 54 54 54 55 56 57 58 57 56 56 56 57 58 60 61 63 66 69 70 71 71 71 72 72 72 72 72 71 71 70 69 69 68 67 66
89 88 86 83 80 78 75 74 75 73 70 64 61 62 65 76 82 84 84 84 85 86 87 86 84 82 78 72 66 61 56 51 47 44 43 43 42 43 43 43 43 42 43 44 44 45 45 45 46 46 46 47 48 49 50 52 53 54 55 56 56 56 56 55 55 54 54 54 54 54 54 54 55 55 56 56 55 56 56 57 58 60 61 63 65 67 69 70 71 72 72 72 72 72 72 72 71 71 70 69 69 68 67
92 92 90 87 83 79 74 72 72 72 72 69 66 66 67 77 83 86 85 85 85 85 86 86 84 82 80 75 69 63 58 53 49 46 45 44 43 43 44 44 43 43 44 44 45 45 46 46 46 46 46 47 48 49 50 51 52 54 55 55 55 55 54 54 54 54 54 54 54 54 54 54 54 54 54 55 55 55 56 57 58 59 61 62 63 65 67 68 69 70 72 72 73 73 73 72 72 71 71 70 69 68 67
91 93 93 90 87 83 79 76 74 74 76 75 73 71 70 75 81 86 87 86 86 86 86 87 86 84 80 77 72 66 60 55 52 49 47 46 45 45 45 45 44 44 45 45 45 46 47 47 47 47 47 47 48 49 50 51 52 53 54 55 54 54 54 54 54 54 54 54 54 54 53 53 53 54 54 54 55 55 56 57 57 58 60 61 62 63 64 65 66 67 68 71 72 73 73 72 72 72 71 71 70 69 68
87 90 93 92 90 88 87 84 82 81 81 82 80 77 74 74 77 82 86 87 88 88 88 88 88 86 82 78 73 68 62 57 54 52 50 49 48 47 46 47 47 46 46 46 46 47 47 48 48 48 48 48 49 49 50 51 52 53 53 54 54 54 54 53 54 54 54 55 54 54 54 53 53 53 54 54 54 55 55 56 57 58 59 60 61 62 63 63 64 65 65 67 69 71 73 73 72 72 72 71 71 69 68
82 86 91 92 92 91 91 89 89 88 86 86 84 81 77 74 75 77 82 86 88 89 89 89 89 88 84 80 75 69 63 59 56 53 53 53 52 51 49 49 49 49 48 47 47 48 48 48 49 49 49 50 50 50 51 52 52 53 53 54 54 54 54 54 54 54 55 55 55 55 54 54 54 54 54 54 54 55 55 56 57 57 58 59 60 61 62 63 63 64 64 65 66 67 70 72 72 72 72 72 71 70 69
77 81 86 90 91 92 92 92 91 90 88 87 85 82 79 76 74 74 76 81 86 89 90 89 89 89 85 81 76 71 65 60 57 56 55 55 55 54 54 52 52 51 50 49 48 48 49 50 50 50 51 51 51 52 52 52 52 53 53 54 54 55 55 55 55 55 56 56 56 55 56 56 55 55 55 55 55 55 56 56 57 57 58 59 60 61 62 62 63 63 63 64 64 65 66 68 70 71 72 72 72 70 69
69 72 76 82 86 90 93 93 92 91 91 88 84 81 79 76 74 72 72 76 81 87 90 89 89 88 85 81 76 72 66 61 58 57 57 56 55 54 55 55 55 55 54 52 50 49 49 50 51 52 52 52 53 53 53 53 53 54 54 54 55 55 55 55 56 56 56 56 56 56 57 57 57 57 57 56 56 56 56 57 57 57 58 59 59 61 61 62 62 62 62 63 64 64 64 65 67 68 69 71 71 70 69
61 62 65 71 78 84 90 93 93 92 91 89 85 82 78 76 74 71 69 70 75 80 87 89 90 89 87 83 79 74 68 62 58 57 56 55 54 53 54 56 57 58 57 56 55 53 50 51 51 51 53 53 54 55 55 55 55 55 55 55 55 56 56 56 56 56 56 57 57 57 58 59 59 59 59 58 58 57 57 57 57 57 58 58 59 60 61 61 61 62 62 62 63 63 64 65 65 66 67 68 68 69 69
55 56 57 62 69 78 87 92 93 94 93 91 88 85 80 78 75 73 69 68 70 73 80 85 88 90 91 88 84 78 70 63 59 56 56 55 56 57 58 59 58 57 56 56 56 56 54 53 51 51 51 53 54 55 56 56 56 55 55 56 56 56 56 56 56 56 56 56 57 58 58 59 59 60 60 59 59 58 58 58 58 58 57 58 58 59 60 60 61 61 61 62 62 63 63 64 65 66 67 66 66 66 67
50 52 53 56 63 73 84 90 93 94 94 93 91 89 85 81 78 75 72 69 68 69 74 80 85 89 92 92 89 84 76 69 63 60 58 57 58 59 60 59 58 56 56 56 56 55 55 55 54 52 50 51 52 54 55 56 56 56 56 56 56 56 57 57 57 56 56 56 57 58 58 59 59 59 59 59 59 59 58 58 58 58 57 57 58 59 59 60 60 61 61 62 62 62 62 63 64 65 66 67 66 65 63
44 47 49 52 59 69 80 87 91 93 93 93 93 92 89 85 82 78 75 71 68 68 70 76 82 88 92 92 91 89 83 76 69 64 61 60 59 59 59 58 58 58 58 57 56 55 54 55 55 54 52 51 52 53 54 55 55 55 55 56 56 56 57 56 57 57 57 57 57 58 58 58 58 58 58 58 58 58 58 58 58 58 57 57 58 59 59 60 60 60 61 61 61 61 61 62 62 64 65 67 67 66 64
39 42 44 48 56 66 77 83 88 91 93 93 93 93 91 89 86 82 78 75 71 68 68 73 79 85 91 91 92 90 87 82 76 71 66 63 60 59 58 58 58 58 58 57 56 56 56 58 58 57 56 53 53 53 53 53 54 54 55 55 55 56 56 56 56 57 57 57 57 57 57 57 57 57 56 56 56 56 57 57 57 57 57 58 59 59 60 60 60 59 60 60 60 60 60 61 61 63 64 66 67 67 64
36 38 41 45 52 61 70 78 84 88 91 92 91 91 91 89 87 85 83 80 75 71 68 71 76 83 89 90 90 90 88 85 81 75 69 65 62 60 58 57 57 56 55 55 56 56 58 59 60 60 58 56 55 54 53 53 53 54 55 55 55 55 55 55 56 56 57 57 57 57 56 57 57 56 56 55 55 55 55 55 56 56 57 59 60 61 61 60 60 59 59 59 59 59 60 61 62 63 65 67 68 67 66
36 37 38 41 47 53 61 67 75 81 85 85 85 85 87 86 85 85 85 83 80 76 71 70 74 80 88 88 88 87 87 85 82 77 70 65 62 60 59 58 56 56 56 55 56 57 58 60 61 61 59 58 57 55 54 55 55 55 55 55 55 55 55 55 56 56 56 56 56 56 56 56 56 56 55 55 55 55 54 54 55 56 57 60 62 63 62 61 61 61 60 60 59 59 60 61 63 64 66 69 70 69 68
36 36 37 39 42 47 52 56 60 65 70 71 73 76 79 81 81 81 81 82 82 81 77 72 73 77 85 87 86 86 87 84 82 79 73 67 62 60 59 59 58 58 58 57 57 57 58 60 61 61 60 60 59 57 56 56 56 56 56 56 55 56 56 56 56 56 56 55 55 55 55 55 55 55 55 55 54 54 54 54 55 55 57 59 62 63 64 64 63 62 61 60 60 60 61 62 64 67 69 71 72 71 70
36 37 37 38 40 43 46 47 49 50 52 56 61 67 72 76 77 77 76 78 80 83 82 77 74 75 81 85 87 87 90 87 85 83 80 74 67 62 59 60 60 60 59 59 59 59 59 60 60 61 61 61 60 59 59 57 57 57 57 57 57 57 56 56 56 56 55 54 54 54 54 54 54 54 54 54 54 53 54 54 54 55 55 56 58 60 61 62 62 62 61 60 60 61 63 64 67 69 72 73 74 73 72
36 37 38 39 40 41 42 42 42 42 42 46 51 58 64 69 71 72 72 74 78 82 86 83 79 76 78 84 87 89 90 89 88 86 84 81 75 68 62 61 61 61 60 60 60 60 61 60 60 61 62 62 61 60 60 59 58 57 57 57 57 57 57 56 56 56 55 54 54 54 54 54 55 54 54 53 53 52 52 53 53 54 54 54 54 55 57 58 59 60 61 62 63 63 65 67 69 71 73 74 74 74 73